Notices

What's New in latest Release from April 7th, 2021:

- Updated Glossary, including Speed of Maximum Gust, and Total Hourly Precipitation

- Updated national and regional climate services offices contacts and prices information

- Addition of station inventory lists for 1981-2010, 1971-2000, and 1961-1990 Normals.

If you haven't already, please take our survey and provide feedback about our website: https://eccc.sondage-survey.ca/f/LanguageSelection.aspx?s=442ca660-fcf1-47c0-95a9-59707d6fd709

Hourly Data Report for March 23, 2020

MIRAMICHI RCS
NEW BRUNSWICK
Current Station Operator: ECCC - MSC

47°00'34.000" N
65°27'54.000" W
33.00 m
8100989
71744
ACQ

Download Data

Hourly Data (March 2020)
Hourly Data Report for March 23, 2020
TIME
LST
Temp Definition
°C
Dew Point Definition
°C
Rel Hum Definition
%
Precip. Amount Definition
mm

Wind Dir Definition
10's deg

Wind Spd Definition
km/h
Visibility Definition
km
Stn Press Definition
kPa
Hmdx Definition


Wind Chill Definition


Weather Definition


00:00 -10.0 -18.8 49 LegendMM 29 4   103.59   -12 LegendNANA
01:00 -13.2 -19.1 61 LegendMM 24 8   103.62   -18 LegendNANA
02:00 -13.2 -18.7 64 LegendMM 31 1   103.66   -14 LegendNANA
03:00 -16.1 -20.2 70 LegendMM 21 4   103.67   -19 LegendNANA
04:00 -16.6 -20.3 73 LegendMM 27 5   103.69   -20 LegendNANA
05:00 -15.9 -20.4 68 LegendMM 27 3   103.67   -18 LegendNANA
06:00 -19.1 -22.5 74 LegendMM 23 9   103.71   -26 LegendNANA
07:00 -17.2 -20.8 73 LegendMM 26 4   103.70   -20 LegendNANA
08:00 -13.8 -19.5 62 LegendMM 21 4   103.67   -17 LegendNANA
09:00 -10.5 -17.3 57 LegendMM 21 8   103.62   -15 LegendNANA
10:00 -6.4 -17.5 41 LegendMM 24 13   103.57   -12 LegendNANA
11:00 -4.2 -17.4 35 LegendMM 24 18   103.47   -10 LegendNANA
12:00 -2.5 -16.5 33 LegendMM 22 17   103.33   -8 LegendNANA
13:00 -1.3 -16.0 32 LegendMM 22 17   103.22   -6 LegendNANA
14:00 -0.7 -16.5 29 LegendMM 22 23   103.11   -7 LegendNANA
15:00 0.9 -15.3 28 LegendMM 20 17   103.00     LegendNANA
16:00 0.7 -14.3 31 LegendMM 22 23   102.88     LegendNANA
17:00 1.2 -12.5 35 LegendMM 20 24   102.75     LegendNANA
18:00 0.7 -13.0 35 LegendMM 21 21   102.67     LegendNANA
19:00 -0.8 -12.3 41 LegendMM 20 10   102.63   -4 LegendNANA
20:00 -0.3 -12.6 39 LegendMM 20 15   102.57   -5 LegendNANA
21:00 -1.1 -11.2 46 LegendMM 18 10   102.50   -5 LegendNANA
22:00 -1.5 -10.3 51 LegendMM 17 7   102.41   -4 LegendNANA
23:00 -1.9 -9.9 54 LegendMM 19 7   102.32   -5 LegendNANA

Notes on Data Quality.

Legend

  • E = Estimated
  • M = Missing
  • NA = Not Available*
  • [empty] = Indicates an unobserved value
Date modified: